Location: ????????
(55.8351°N, 38.7040°E)
Time: 21:52:15
(UTC+00:00)

SWAS - Pass Details

Date: 14 April 2024
Orbit: 561 x 572 km, 69.9° (Epoch: 23 May)

Event Time Altitude Azimuth Distance (km) Brightness Sun altitude
Rises 00:33:16 0° 322° (NW) 2,781 8.0 -14.0°
Reaches altitude 10° 00:35:29 10° 321° (NW) 1,882 7.1 -13.7°
Maximum altitude 00:39:42 77° 237° (WSW) 592 4.3 -13.3°
Drops below altitude 10° 00:43:54 10° 151° (SSE) 1,877 6.9 -12.8°
Sets 00:46:06 0° 150° (SSE) 2,773 7.8 -12.6°
